Back to catalog

SES MPOWER-A F1

AliveCommunicationsMEO
NORAD 54755·PAYLOAD·🇱🇺 Luxembourg

Launched Dec 16, 2022 from Cape Canaveral Space Force Station

Loading…

Next Passes (next 24 hours)

TLE

FreshSource: CelesTrak SupGP

Epoch: Sep 13, 2026, 22:59 UTC

1 54755C 22174A   26256.95833333  .00000000  00000+0  00000+0 0  2564
2 54755   0.0431 341.9875 0006935 196.3950 295.7436  5.00114482    11

Track SES MPOWER-A F1 in real time with AllMySat

Download on the App Store